Location: ???????
(41.3830°N, 22.2903°E)
Time: 15:15:01
(UTC+00:00)

Daily predictions for brighter satellites

Satellite Brightness Start Highest point End
(mag) Time Altitude Azimuth Time Altitude Azimuth Time Altitude Azimuth
BREEZE-M (TANK) 2.8 18:09:50 10° SW 18:12:37 83° SE 18:20:30 10° ENE
Cosmos 2016 Rocket 4.1 18:11:14 10° S 18:17:35 89° E 18:24:00 10° N
Cosmos 540 Rocket 3.8 18:12:34 10° NNW 18:17:41 71° WSW 18:22:47 10° S
OAO 3 Rocket 4.2 18:14:38 10° SW 18:18:53 29° SSE 18:23:11 10° ESE
Cosmos 1802 Rocket 4.4 18:13:13 10° SSW 18:19:37 75° W 18:25:58 10° N
Cosmos 841 Rocket 3.5 18:17:11 10° NNW 18:22:21 87° ENE 18:27:31 10° SSE
IGS 5A 3.5 18:19:17 10° SSE 18:23:23 67° ENE 18:27:31 10° N
Resurs 1-3 3.7 18:19:03 10° SSE 18:23:23 63° ENE 18:27:44 10° N
NOSS 3-2 (A) 4.2 18:15:56 10° NNW 18:23:37 77° NE 18:32:21 10° SE
Cosmos 2098 Rocket 2.4 18:22:03 10° N 18:25:28 78° W 18:28:25 10° S
USA 129 1.5 18:23:11 10° SSE 18:25:40 82° E 18:27:35 10° N
Cosmos 1697 Rocket 3.8 18:21:25 10° SSE 18:25:44 23° E 18:30:03 10° NE
Meteor 1-5 Rocket 4.2 18:20:57 10° N 18:26:20 61° ENE 18:31:34 10° SSE
[s.n.52650] 2.6 18:23:32 10° NW 18:26:22 88° NNE 18:29:12 10° SE
[s.n.52647] 2.6 18:23:38 10° NW 18:26:29 89° NE 18:29:19 10° SE
[s.n.52649] 2.6 18:23:44 10° NW 18:26:36 89° ENE 18:29:26 10° SE
[s.n.52645] 2.6 18:23:53 10° NW 18:26:44 89° ENE 18:29:33 10° SE
[s.n.52643] 2.6 18:24:00 10° NW 18:26:51 89° ENE 18:29:40 10° SE
[s.n.52648] 2.6 18:24:07 10° NW 18:26:57 90° E 18:29:47 10° SE
[s.n.52646] 2.6 18:24:14 10° NW 18:27:04 90° WNW 18:29:54 10° SE
[s.n.52641] 2.6 18:24:21 10° NW 18:27:11 90° WSW 18:30:01 10° SE
[s.n.52639] 2.6 18:24:28 10° NW 18:27:19 89° SW 18:30:08 10° SE
Cosmos 2233 Rocket 4.1 18:21:09 10° S 18:27:21 63° E 18:33:36 10° NNE
[s.n.52644] 2.6 18:24:36 10° NW 18:27:26 89° SW 18:30:15 10° SE
[s.n.52642] 2.6 18:24:42 10° NW 18:27:33 89° SW 18:30:22 10° SE
[s.n.52637] 2.6 18:24:49 10° NW 18:27:40 89° SW 18:30:29 10° SE
PSLV R/B 4.3 18:23:49 10° NNE 18:27:41 42° E 18:31:31 10° S
[s.n.52635] 2.6 18:24:57 10° NW 18:27:48 88° SSW 18:30:36 10° SE
[s.n.52640] 2.6 18:25:04 10° NW 18:27:55 88° SW 18:30:43 10° SE
[s.n.52633] 2.6 18:25:11 10° NW 18:28:02 88° SW 18:30:50 10° SE
[s.n.52638] 2.6 18:25:19 10° NW 18:28:10 88° SW 18:30:58 10° SE
[s.n.52636] 2.6 18:25:26 10° NW 18:28:17 87° SSW 18:31:04 10° SE
[s.n.52631] 2.6 18:25:33 10° NW 18:28:24 87° SSW 18:31:11 10° SE
[s.n.52634] 2.6 18:25:41 10° NW 18:28:32 87° SW 18:31:19 10° SE
[s.n.52629] 2.6 18:25:48 10° NW 18:28:39 86° SW 18:31:26 10° SE
[s.n.52627] 2.6 18:25:55 10° NW 18:28:47 86° SSW 18:31:33 10° SE
[s.n.52632] 2.6 18:26:02 10° NW 18:28:53 86° SW 18:31:40 10° SE
[s.n.52630] 2.6 18:26:10 10° NW 18:29:01 86° SW 18:31:47 10° SE
SPOT 1/Viking Rocket 4.4 18:24:32 10° SE 18:29:08 34° ENE 18:33:44 10° N
[s.n.52625] 2.6 18:26:17 10° NW 18:29:08 85° SW 18:31:54 11° SE
[s.n.52623] 2.6 18:26:25 10° NW 18:29:16 85° SW 18:32:01 11° SE
[s.n.52628] 2.6 18:26:32 10° NW 18:29:23 85° SW 18:32:08 11° SE
[s.n.52621] 2.6 18:26:40 10° NW 18:29:31 85° SW 18:32:16 11° SE
[s.n.52626] 2.6 18:26:46 10° NW 18:29:38 84° SW 18:32:22 11° SE
[s.n.52624] 2.6 18:26:55 10° NW 18:29:45 84° SW 18:32:30 11° SE
[s.n.52619] 2.6 18:27:02 10° NW 18:29:52 84° SW 18:32:37 11° SE
[s.n.52617] 2.6 18:27:09 10° NW 18:30:01 83° SW 18:32:44 11° SE
[s.n.52622] 2.6 18:27:16 10° NW 18:30:08 83° SW 18:32:52 11° SE
[s.n.52620] 2.6 18:27:24 10° NW 18:30:15 83° SW 18:32:59 11° SE
[s.n.52615] 2.6 18:27:31 10° NW 18:30:23 83° SW 18:33:06 11° SE
[s.n.52618] 2.6 18:27:39 10° NW 18:30:30 82° SW 18:33:13 11° SE
[s.n.52616] 2.6 18:27:46 10° NW 18:30:37 82° SW 18:33:20 11° SE
[s.n.52613] 2.6 18:27:54 10° NW 18:30:45 82° SW 18:33:28 11° SE
[s.n.52614] 2.6 18:28:01 10° NW 18:30:52 82° SW 18:33:35 11° SE
[s.n.52611] 2.6 18:28:09 10° NW 18:31:00 81° SW 18:33:42 11° SE
[s.n.52609] 2.6 18:28:17 10° NW 18:31:08 81° SW 18:33:50 11° SE
[s.n.52612] 2.6 18:28:24 10° NW 18:31:15 81° SW 18:33:57 11° SE
[s.n.52607] 2.6 18:28:31 10° NW 18:31:23 80° SW 18:34:04 11° SE
[s.n.52610] 2.6 18:28:39 10° NW 18:31:30 80° SW 18:34:11 11° SE
[s.n.52608] 2.6 18:28:46 10° NW 18:31:38 80° SW 18:34:19 11° SE
[s.n.52605] 2.6 18:28:54 10° NW 18:31:46 80° SW 18:34:26 11° SE
[s.n.52603] 2.6 18:29:02 10° NW 18:31:53 79° SW 18:34:34 11° SE
[s.n.52598] 2.6 18:29:09 10° NW 18:32:01 79° SW 18:34:41 11° SE
[s.n.52606] 2.6 18:29:17 10° NW 18:32:08 79° SW 18:34:48 11° SE
[s.n.52604] 2.6 18:29:24 10° NW 18:32:16 79° SW 18:34:56 11° SE
Spot 2 4.3 18:28:13 10° S 18:32:17 65° WSW 18:36:18 10° NNW
Okean O Rocket 4.5 18:30:05 10° WSW 18:32:23 14° W 18:34:40 10° WNW
[s.n.52600] 2.6 18:29:32 10° NW 18:32:24 78° SW 18:35:03 11° SE
Cosmos 2297 Rocket 2.9 18:27:05 10° N 18:32:25 41° ENE 18:37:39 10° SE
[s.n.52602] 2.6 18:29:40 10° NW 18:32:31 78° SW 18:35:10 11° SE
[s.n.52601] 2.7 18:29:47 10° NW 18:32:39 78° SW 18:35:18 11° SE
[s.n.52599] 2.7 18:29:55 10° NW 18:32:46 77° SW 18:35:25 11° SE
Cosmos 1743 Rocket 4.4 18:28:28 10° NNW 18:32:51 54° W 18:37:10 10° S
Cosmos 1666 Rocket 4.0 18:32:42 10° N 18:36:55 44° ENE 18:41:08 10° SSE
Cosmos 1805 Rocket 3.9 18:33:51 10° NNW 18:38:18 70° W 18:42:42 10° S
CZ-4B R/B 1.6 18:36:38 10° NNE 18:39:45 44° E 18:42:47 10° S
NOSS 3-2 (C) 4.4 18:32:14 10° NNW 18:39:45 61° NE 18:47:51 12° SE
Resurs 01 Rocket 2.0 18:36:30 10° SE 18:40:42 47° ENE 18:44:57 10° N
Cosmos 1315 Rocket 3.3 18:38:07 10° N 18:42:02 43° ENE 18:45:36 12° SSE
SL-27 R/B 4.2 18:39:39 10° NW 18:42:36 28° WSW 18:45:29 10° SSW
MetOp-A 4.0 18:38:30 10° S 18:42:38 56° WSW 18:46:31 10° NNW
ARGOS Delta rocket 4.5 18:37:20 10° NNE 18:42:38 48° E 18:47:51 10° S
Cosmos 1151 Rocket 2.9 18:42:21 10° S 18:46:37 74° E 18:50:54 10° NNE
SJ-6B 4.1 18:43:22 10° SSW 18:46:58 38° W 18:50:32 10° NNW
Cosmos 1633 Rocket 3.4 18:44:41 10° N 18:48:57 48° E 18:52:43 13° SSE
Cosmos 1812 4.5 18:47:41 10° SW 18:51:11 34° WNW 18:54:41 10° N
Okean-O 4.4 18:48:21 10° SSW 18:52:17 31° W 18:56:14 10° NNW
IRS-1A Rocket 4.4 18:46:51 10° SSE 18:52:24 68° ENE 18:58:06 10° N
Cosmos 968 Rocket 3.4 18:48:51 10° S 18:53:59 74° ESE 18:59:07 10° NNE
Cosmos 1470 Rocket 4.4 18:52:09 10° N 18:56:06 33° ENE 18:58:52 17° SE
Terra 3.8 18:55:30 10° E 18:58:02 14° ENE 19:00:34 10° NNE
Cosmos 389 Rocket 4.3 18:56:34 10° NNE 18:58:56 17° ENE 19:00:13 14° E
USA 238 DEB 4.0 18:52:50 10° NNW 19:00:12 75° NE 19:06:37 16° SE
USA 238 4.0 18:52:57 10° NNW 19:00:18 75° NE 19:06:43 16° SE
CENTAUR R/B 3.4 18:52:17 10° NW 19:00:41 78° WSW 19:09:01 13° SSE
ISS -0.8 19:00:54 10° NW 19:02:51 14° N 19:04:47 10° NNE
Aureole 1 Rocket 3.5 19:02:01 19° SE 19:03:19 24° ESE 19:05:56 10° NE
Sich 1 4.2 19:00:25 10° NNW 19:04:35 43° W 19:08:41 10° SSW
Cosmos 2219 3.8 18:59:40 10° NNW 19:05:04 44° ENE 19:08:58 18° SE
IRAS Rocket 4.2 18:59:47 10° NNE 19:05:26 82° ESE 19:11:04 10° SSW
Cosmos 2344 3.8 18:58:23 10° S 19:05:35 43° ESE 19:12:28 10° NE
Cosmos 405 3.4 19:02:43 10° N 19:05:58 41° ENE 19:07:43 22° SE
Meteor 2-6 Rocket 4.3 19:00:42 10° SSW 19:06:04 74° W 19:11:32 10° N
ASTRO E2 4.2 19:03:40 10° SW 19:06:21 18° S 19:07:00 17° SSE
Cosmos 1515 Rocket 4.0 19:05:47 16° SSE 19:08:52 41° E 19:12:59 10° NNE
MOS 1 4.4 19:05:36 10° S 19:11:14 77° WSW 19:16:55 10° NNW
Ariane Rocket 3.0 19:09:26 15° SSE 19:13:41 81° ENE 19:18:48 10° NNW
Cosmos 44 3.4 19:12:26 10° NW 19:16:42 57° WSW 19:19:39 19° SSE
USA 245 4.5 19:17:06 20° SE 19:20:54 59° ENE 19:27:01 10° N
Cosmos 1515 3.7 19:19:42 21° SSE 19:22:03 59° E 19:25:46 10° NNE
SPOT 3 Rocket 3.7 19:18:49 21° SSE 19:22:13 61° ENE 19:27:18 10° N
Cosmos 1072 Rocket 4.5 19:16:50 11° S 19:22:34 64° E 19:28:36 10° NNE
ARIANE 5 R/B 4.4 19:21:47 15° E 19:23:33 19° ENE 19:26:44 10° NNE
CARTOSAT-1 3.6 19:21:13 24° SSE 19:23:44 62° ENE 19:28:00 10° N
Gbstr 26 Del rocket 4.3 19:17:34 10° WNW 19:24:47 63° SW 19:28:44 23° SSE
Cosmos 2263 Rocket 4.0 19:23:56 10° N 19:27:54 19° NE 19:31:11 12° E
Cosmos 1536 2.9 19:24:18 10° N 19:28:16 60° E 19:30:05 30° SSE
EXPRESS MD2 4.3 19:27:36 10° WNW 19:33:01 44° NNE 19:34:58 21° E
Okean 1 4.2 19:32:26 28° ESE 19:33:06 30° E 19:36:37 10° NNE
Cosmos 1743 2.7 19:30:28 10° N 19:34:12 59° E 19:35:31 36° SE
Helios 1A Rocket 3.0 19:34:51 33° SE 19:36:24 56° ENE 19:40:20 10° N
Cosmos 921 Rocket 4.1 19:32:47 10° N 19:36:51 32° ENE 19:38:23 25° ESE
Cosmos 2227 Rocket 2.2 19:33:20 10° NNW 19:39:02 89° WSW 19:42:17 27° SSE
USA 215 3.8 19:35:15 10° ENE 19:41:02 32° SE 19:45:12 17° S
Cosmos 1340 2.5 19:41:42 27° S 19:43:38 89° WNW 19:47:23 10° N
Cosmos 1486 Rocket 4.1 19:40:46 10° SSW 19:46:04 82° WNW 19:51:24 10° NNE
Spot 2 Rocket 3.5 19:45:24 32° SE 19:47:43 66° ENE 19:52:43 10° N
SL-4 R/B 2.9 19:43:38 10° NW 19:48:01 47° NNE 19:50:07 25° E
Cosmos 2369 3.6 19:43:36 15° S 19:48:17 65° ESE 19:53:54 10° NNE
Cosmos 1980 Rocket 2.3 19:44:53 21° S 19:48:30 56° ESE 19:54:02 10° NNE
Cosmos 2034 Rocket 4.0 19:46:08 23° S 19:50:09 67° E 19:56:26 10° NNE
Cosmos 1975 4.4 19:53:20 10° NNE 19:56:34 22° ENE 19:56:47 22° ENE
ATLAS 2AS CENTAUR R/B 3.1 19:53:43 12° S 20:00:46 53° ESE 20:08:08 10° NE
Cosmos 836 Rocket 4.5 19:56:00 10° NNW 20:01:17 84° WSW 20:03:24 37° SSE
OAO 3 Rocket 3.7 19:57:17 10° WSW 20:01:54 40° S 20:02:12 40° S
NOSS 3-4 (A) 4.2 20:00:03 10° SW 20:05:33 50° NW 20:11:31 10° NNE
NOSS 3-4 (C) 4.2 20:00:05 10° SW 20:05:37 51° NW 20:11:37 10° NNE
Cosmos 1697 Rocket 3.5 20:03:48 10° SW 20:09:18 51° WNW 20:14:50 10° NNE
Meteor 1-18 Rocket 4.5 20:07:57 38° SE 20:09:42 52° E 20:15:12 10° NNE
Cosmos 1933 Rocket 4.0 20:08:15 10° NNW 20:12:38 57° W 20:14:16 35° SSW
Cosmos 1184 Rocket 4.0 20:12:17 31° WSW 20:12:56 35° WNW 20:15:45 10° N
SPOT 5 3.1 20:12:08 36° S 20:14:20 75° WSW 20:19:37 10° NNW
Cosmos 1503 Rocket 4.1 20:10:51 20° SSW 20:14:31 78° WNW 20:19:51 10° NNE
Cosmos 2297 Rocket 3.7 20:11:28 10° NW 20:16:15 29° WSW 20:19:28 17° SSW
Resurs 01 Rocket 4.1 20:14:47 10° SW 20:17:27 16° W 20:20:06 10° NW
Meteor 2-21 4.4 20:13:58 10° N 20:20:05 89° E 20:22:32 39° S
BREEZE-M DEB (TANK) 3.5 20:18:46 10° NW 20:20:58 30° NNE 20:22:17 23° ENE
Cosmos 1733 Rocket 4.3 20:18:54 10° NNE 20:22:45 28° ENE 20:22:51 28° ENE
Meteor 2-9 Rocket 4.2 20:17:50 10° N 20:23:40 89° W 20:25:35 44° S
BREEZE M DEB (TANK) 4.2 20:22:18 10° WNW 20:26:56 81° NNE 20:45:58 11° ESE
SAR-Lupe-1 4.4 20:25:22 10° NNE 20:28:23 58° NE 20:28:23 58° NE
Cosmos 2195 Rocket 4.5 20:23:35 10° N 20:29:58 78° E 20:32:06 44° SSE
SL-16 R/B 3.1 20:31:12 31° E 20:31:12 31° E 20:35:44 10° NE
Meteor 2-21 Rocket 4.3 20:26:06 10° N 20:32:13 83° E 20:34:09 46° SSE
Cosmos 389 Rocket 4.2 20:30:26 10° NW 20:33:20 25° W 20:33:48 24° WSW
SJ 16-02 1.4 20:32:45 52° SW 20:33:43 73° WNW 20:38:06 10° NNE
ERS-1 Rocket 3.5 20:33:38 38° SSW 20:35:11 53° W 20:40:07 10° NNW
Terra 2.0 20:34:12 51° SSW 20:35:13 66° W 20:39:58 10° NNW
Cosmos 1378 3.3 20:36:00 65° N 20:36:00 65° N 20:39:11 10° N
Meteor 2-15 4.5 20:37:00 49° SE 20:38:21 61° E 20:44:19 10° NNE
ATLAS 3B R/B 4.0 20:31:43 10° NNW 20:38:25 36° NE 20:43:01 20° E
Geosat 3.9 20:39:37 60° SE 20:40:31 80° ENE 20:45:34 10° NNW
ISS -1.4 20:38:00 10° NNW 20:40:34 20° NNE 20:41:32 18° NE
Cosmos 158 Rocket 4.3 20:35:40 10° N 20:40:40 52° ENE 20:41:26 48° E
Cosmos 2228 Rocket 3.5 20:40:01 46° SW 20:41:07 61° W 20:45:39 10° N
Cosmos 1428 Rocket 4.4 20:34:54 10° N 20:41:15 87° E 20:43:11 48° S
Meteor 2-16 Rocket 4.4 20:41:09 10° N 20:47:22 89° WSW 20:49:01 52° S
Cosmos 2278 3.7 20:46:16 36° SW 20:48:39 78° WNW 20:54:21 10° NNE
Cosmos 1346 Rocket 3.2 20:51:20 59° NNE 20:51:20 59° NNE 20:54:41 10° NNE
Cosmos 1092 Rocket 4.1 20:47:58 10° NNW 20:54:08 70° W 20:55:56 46° SSW
Cosmos 1634 Rocket 4.0 20:54:57 45° SSW 20:57:01 78° W 21:03:16 10° N
RESURS DK-1 2.8 20:57:48 57° WNW 20:57:59 58° WNW 21:02:04 10° NNE
Cosmos 2142 Rocket 4.5 20:57:19 55° SSE 20:58:41 72° E 21:05:04 10° NNE
Cosmos 2082 4.3 20:53:34 10° NW 20:58:50 43° WSW 20:59:56 38° SW
ARIANE 5 R/B 3.4 20:59:19 41° WSW 20:59:40 42° W 21:03:57 10° NNW
Timation 2 Rocket 4.4 20:54:58 10° NNW 21:01:24 57° WSW 21:03:12 44° SSW
Cosmos 2360 Rocket 3.6 21:02:50 24° E 21:02:50 24° E 21:06:15 10° NE
Cosmos 2263 Rocket 2.1 21:06:49 10° NNW 21:12:22 69° WSW 21:12:52 65° SW
Cosmos 990 Rocket 4.4 21:17:57 50° E 21:17:57 50° E 21:22:28 10° NNE
Cosmos 1066 Rocket 4.2 21:17:10 67° SE 21:17:34 69° E 21:23:16 10° NNE
Cosmos 1441 Rocket 4.5 21:19:10 37° NNE 21:19:10 37° NNE 21:21:31 10° NNE
USA 215 3.4 21:17:48 10° NE 21:24:20 72° NW 21:30:51 10° WSW
SL-4 R/B 3.9 21:23:31 10° WNW 21:25:33 23° W 21:25:33 23° W
Okean 1-7 4.1 21:29:23 39° NE 21:29:23 39° NE 21:32:30 10° NNE
Meteor 2-10 4.2 21:25:14 10° N 21:30:25 58° ENE 21:30:25 58° ENE
Cosmos 2333 Rocket 3.7 21:32:43 23° E 21:32:43 23° E 21:36:04 10° NE
Cosmos 1980 Rocket 4.3 21:28:26 10° WSW 21:32:52 23° NW 21:37:20 10° N
ERS-2 4.2 21:32:47 10° NNE 21:34:19 22° NE 21:34:19 22° NE
Cosmos 44 Rocket 3.5 21:33:15 10° NW 21:37:15 63° NW 21:37:15 63° NW
Cosmos 2322 Rocket 2.0 21:37:57 83° ESE 21:38:00 83° ESE 21:43:39 10° NNE
Cosmos 1703 Rocket 4.4 21:40:14 46° NE 21:40:14 46° NE 21:43:34 10° NNE
Iridium 4 Rocket 3.5 21:43:30 10° N 21:47:18 63° NNE 21:47:18 63° NNE
ADEOS Rocket 3.3 21:51:02 46° E 21:51:37 47° ENE 21:57:09 10° N
ATLAS 2AS CENTAUR R/B 4.0 21:44:41 10° WSW 21:51:57 41° NW 21:59:03 10° NNE
Cosmos 2242 Rocket 4.3 21:53:44 49° NE 21:53:44 49° NE 21:57:16 10° NNE
Cosmos 1844 Rocket 3.0 21:48:22 10° NNW 21:53:52 55° ENE 21:54:18 53° E
Cosmos 1726 3.9 21:51:52 10° N 21:53:53 30° N 21:53:53 30° N
Okean 3 4.5 21:57:26 44° NNE 21:57:26 44° NNE 22:00:23 10° N
ALOS 2 3.2 21:58:43 55° N 21:58:43 55° N 22:02:13 10° N
USA 267 3.4 21:55:37 39° ESE 21:58:08 69° NE 22:04:39 10° NW
Meteor 1-15 Rocket 4.1 21:52:38 10° N 21:58:17 77° E 21:58:23 76° E
Cosmos 2266 Rocket 3.8 21:53:11 10° N 21:59:29 84° W 22:00:00 76° SSW
Cosmos 1844 4.0 21:58:44 10° NNW 22:04:28 57° ENE 22:05:05 54° E
Cosmos 2237 4.4 22:07:01 58° W 22:07:40 62° WNW 22:13:22 10° NNE
Cosmos 2219 Rocket 3.1 22:08:42 35° E 22:08:42 35° E 22:12:57 10° NE
Cosmos 1908 Rocket 4.5 22:03:55 10° NNW 22:07:06 44° NW 22:07:06 44° NW
Meteor 1-12 Rocket 4.3 22:03:00 10° NNW 22:08:55 69° W 22:09:06 69° WSW
SL-16 R/B 3.3 22:13:00 30° W 22:14:45 37° WNW 22:20:01 10° N
Cosmos 372 Rocket 4.4 22:16:21 52° ENE 22:16:21 52° ENE 22:20:34 10° NNE
ISS -0.6 22:14:22 10° NW 22:14:25 10° NW 22:14:25 10° NW
Cosmos 923 Rocket 4.4 22:18:56 10° NNW 22:23:36 57° WNW 22:23:36 57° WNW
COSMOS 2428 3.6 22:25:22 35° E 22:25:22 35° E 22:29:53 10° NE
ASTEX 1 4.0 22:23:42 10° NNE 22:27:50 47° ENE 22:27:50 47° ENE
ATLAS 3B R/B 2.9 22:22:15 10° NW 22:29:32 60° WSW 22:30:15 57° SW
Cosmos 1470 4.3 22:26:07 10° N 22:28:26 34° N 22:28:26 34° N
Cosmos 2237 Rocket 4.3 22:31:50 14° E 22:31:50 14° E 22:34:33 10° ENE
Nimbus 7 Rocket 4.2 22:27:33 10° NNE 22:33:28 78° ESE 22:33:37 77° ESE
Cosmos 1937 Rocket 3.7 22:35:24 64° WNW 22:35:24 64° WNW 22:40:30 10° NNE
Cosmos 1818 3.7 22:31:52 10° NNW 22:37:19 67° NE 22:37:32 66° ENE
ATLAS CENTAUR R/B 2.5 22:34:03 10° NNW 22:38:43 45° NE 22:38:51 44° NE
ATLAS 5 CENTAUR R/B 4.2 22:26:09 10° NW 22:39:22 45° NNE 22:42:11 22° E
Meteor 2-17 Rocket 4.3 22:33:51 10° N 22:40:02 86° W 22:40:24 80° SSW
Cosmos 2333 4.1 22:40:29 82° WNW 22:40:29 82° WNW 22:46:07 10° NNE
Meteor 1-22 Rocket 4.3 22:36:45 10° NNW 22:42:37 68° W 22:42:44 68° WSW
CZ-2D R/B 4.4 22:41:39 10° ENE 22:43:49 12° E 22:44:33 12° E
Cosmos 2112 Rocket 4.3 22:39:40 10° NNW 22:44:16 57° WNW 22:44:16 57° WNW
Cosmos 2360 Rocket 2.9 22:44:33 42° W 22:45:23 45° WNW 22:50:49 10° NNE
CZ-4C R/B 3.8 22:39:53 10° NNW 22:46:51 47° NE 22:54:56 10° ESE
Cosmos 1680 Rocket 4.1 22:42:11 10° NNW 22:46:29 46° WNW 22:46:29 46° WNW
Cosmos 1553 Rocket 3.9 22:48:34 67° ESE 22:49:00 70° E 22:55:07 10° NNE
Nadezhda 2 Rocket 4.3 22:43:29 10° N 22:49:42 88° E 22:50:08 78° SSE
Cosmos 1244 Rocket 4.3 22:44:54 10° N 22:51:16 87° E 22:51:53 75° SSE
In-Cosmos 22 4.1 22:59:39 84° W 22:59:43 84° W 23:05:17 10° N
Cosmos 2221 Rocket 4.2 23:01:25 55° NNE 23:01:25 55° NNE 23:04:55 10° N
Cosmos 2278 Rocket 3.8 22:58:04 10° N 23:03:00 29° NE 23:06:30 16° ESE
Okean 2 4.4 23:04:43 44° N 23:04:43 44° N 23:07:34 10° N
Cosmos 2333 Rocket 2.8 23:14:42 43° W 23:15:30 46° WNW 23:20:57 10° NNE
Cosmos 1674 Rocket 4.0 23:18:11 57° NNE 23:18:11 57° NNE 23:21:42 10° N
Cosmos 2322 3.9 23:18:52 56° W 23:19:27 59° WNW 23:25:08 10° NNE
Cosmos 1980 4.3 23:22:06 42° ESE 23:22:22 42° ESE 23:27:39 10° NE
Cosmos 2322 Rocket 4.4 23:19:43 11° W 23:22:46 17° NW 23:26:17 10° N
Resurs 1-4 Rocket 3.3 23:19:16 10° NE 23:23:52 30° E 23:24:33 29° ESE
Cosmos 2150 Rocket 4.2 23:25:48 57° ESE 23:25:48 57° ESE 23:30:51 10° NNE
Cosmos 1745 Rocket 3.9 23:22:03 10° N 23:28:19 85° E 23:29:23 64° SSE
Cosmos 1378 Rocket 4.0 23:35:33 56° NW 23:35:33 56° NW 23:39:19 10° N
Cosmos 1674 4.4 23:36:22 26° NW 23:36:22 26° NW 23:38:31 10° N
MOZ.5/SAFIR/RUBIN 5/SL-8 3.9 23:35:21 65° E 23:35:34 66° ENE 23:40:16 10° N
Cosmos 1844 Rocket 4.4 23:33:16 10° NW 23:35:57 19° W 23:35:57 19° W
ADEOS Rocket 4.3 23:37:58 22° W 23:37:58 22° W 23:41:51 10° NW
Cosmos 1626 3.9 23:41:56 26° NW 23:41:56 26° NW 23:44:01 10° N
USA 267 4.1 23:42:55 31° W 23:42:55 31° W 23:47:16 10° WNW
NOSS 0 Rocket 3.8 23:42:16 63° S 23:43:21 82° ESE 23:49:37 10° NNE
USA 305 3.9 23:44:57 38° E 23:44:57 38° E 23:47:48 10° ENE
Cosmos 1048 Rocket 3.8 23:39:38 10° NNW 23:44:49 84° WSW 23:44:57 83° SW
SL-16 R/B 3.5 23:41:09 18° SE 23:45:18 42° ENE 23:51:06 10° N
Okean 2 Rocket 4.3 23:41:31 10° NNW 23:44:41 32° WNW 23:44:41 32° WNW
ADEOS II 3.7 23:41:54 10° NE 23:46:10 25° E 23:47:48 21° ESE
USA 229 DEB 4.2 23:39:47 10° NNW 23:47:11 69° NE 23:55:02 10° SE
USA 229 4.2 23:39:53 10° NNW 23:47:17 68° NE 23:55:06 10° SE
Meteor 1-16 Rocket 4.2 23:41:26 10° NNW 23:47:21 71° W 23:48:04 64° SW
Cosmos 1975 Rocket 3.9 23:48:30 40° E 23:48:44 40° E 23:52:53 10° NNE
Cosmos 1125 Rocket 3.3 23:48:43 78° SW 23:49:02 85° WNW 23:54:16 10° NNE
Cosmos 2219 Rocket 3.3 23:50:24 28° W 23:51:48 32° WNW 23:56:47 10° N
Cosmos 883 Rocket 4.4 23:50:56 57° S 23:52:20 90° W 23:58:42 10° N
IDEFIX/ARIANE 42P 4.3 23:48:24 10° NE 23:52:34 23° E 23:54:36 19° SE
SL-14 R/B 3.9 23:54:05 50° NNW 23:54:05 50° NNW 23:57:09 10° N
GP-B 3.0 23:49:42 10° N 23:54:02 82° NE 23:54:02 82° NE
